Location: Fort Worth, Tx
(32.7431°N, 97.3695°W)
Time: 06:11:28
(UTC-05:00)

Altair - Pass Details

Date: 08 October 2023
Orbit: 1501 x 1682 km, 47.2° (Epoch: 06 December)

Event Time Altitude Azimuth Distance (km) Brightness Sun altitude
Rises 01:19:00 0° 221° (SW) 4,654 - -59.8°
Reaches altitude 10° 01:22:00 10° 219° (SW) 3,691 - -60.1°
Maximum altitude 01:31:17 72° 137° (SE) 1,636 - -61.0°
Drops below altitude 10° 01:40:58 10° 56° (NE) 3,843 - -61.8°
Sets 01:44:09 0° 54° (NE) 4,854 - -62.0°
